Weather History for Ocala, FL

Change the Weather History Date:

Tuesday, May 6, 2014

  Actual Average Record
Temperature  
Mean Temperature 72 °F -  
Max Temperature 87 °F 84 °F 93 °F (1999)
Min Temperature 57 °F 59 °F 51 °F (1997)
Cooling Degree Days 7    
Growing Degree Days 22 (Base 50)    
Moisture  
Dew Point 54 °F    
Average Humidity 56    
Maximum Humidity 88    
Minimum Humidity 31    
Precipitation  
Precipitation 0.00 in - - ()
Sea Level Pressure  
Sea Level Pressure 30.03 in    
Wind  
Wind Speed 2 mph (SE)    
Max Wind Speed 8 mph    
Max Gust Speed -    
Visibility 10 miles    
Events      
Averages and records for this station are not official NWS values.
T = Trace of Precipitation, MM = Missing Value Source: NWS Daily Summary

Daily Weather History Graph

Daily Weather History Graph

Search for Another Location

Airport:

Trip Planner

Search our weather history database for the weather conditions in past years. The results will help you decide how hot, cold, wet, or windy it might be!

Date:

Astronomy

May. 06, 2014 Rise Set
Actual Time 6:43 AM EDT 8:08 PM EDT
Civil Twilight 6:17 AM EDT 8:33 PM EDT
Nautical Twilight 5:47 AM EDT 9:03 PM EDT
Astronomical Twilight 5:16 AM EDT 9:35 PM EDT
Moon 12:52 PM EDT (5/6) 1:30 AM EDT (5/6)
Length of Visible Light 14h 15m
Length of Day
13h 24m
Waxing Crescent, 46% of the Moon is Illuminated
May 6
Waxing Crescent
May 6
First Quarter
May 14
Full
May 21
Last Quarter
May 28
New

Hourly Weather History & Observations

Time (EDT) Temp. Heat Index Dew Point Humidity Pressure Visibility Wind Dir Wind Speed Gust Speed Precip Events Conditions
12:15 AM 64.4 °F - 53.6 °F 68% 30.04 in 10.0 mi SE 4.6 mph - N/A   Clear
12:35 AM 64.4 °F - 53.6 °F 68% 30.04 in 10.0 mi Calm Calm - N/A   Clear
12:55 AM 62.6 °F - 53.6 °F 72% 30.04 in 10.0 mi Calm Calm - N/A   Clear
1:15 AM 62.6 °F - 53.6 °F 72% 30.04 in 10.0 mi Calm Calm - N/A   Clear
1:35 AM 62.6 °F - 53.6 °F 72% 30.04 in 10.0 mi Calm Calm - N/A   Clear
1:55 AM 62.6 °F - 53.6 °F 72% 30.04 in 10.0 mi Calm Calm - N/A   Clear
2:15 AM 60.8 °F - 53.6 °F 77% 30.03 in 10.0 mi Calm Calm - N/A   Clear
2:35 AM 60.8 °F - 53.6 °F 77% 30.02 in 10.0 mi Calm Calm - N/A   Clear
2:55 AM 60.8 °F - 53.6 °F 77% 30.02 in 10.0 mi Calm Calm - N/A   Clear
3:15 AM 60.8 °F - 53.6 °F 77% 30.02 in 10.0 mi Calm Calm - N/A   Clear
3:35 AM 59.0 °F - 53.6 °F 82% 30.02 in 10.0 mi Calm Calm - N/A   Clear
3:55 AM 57.2 °F - 53.6 °F 88% 30.01 in 10.0 mi Calm Calm - N/A   Clear
7:50 AM 57.2 °F - 51.8 °F 82% 30.06 in 10.0 mi Calm Calm - N/A   Clear
8:50 AM 68.0 °F - 59.0 °F 73% 30.07 in 10.0 mi Calm Calm - N/A   Clear
10:50 AM 80.6 °F 80.5 °F 55.4 °F 42% 30.08 in 10.0 mi North 4.6 mph - N/A   Clear
11:50 AM 82.4 °F - 51.8 °F 35% 30.08 in 10.0 mi NNW 5.8 mph - N/A   Clear
12:50 PM 82.4 °F 81.4 °F 53.6 °F 37% 30.06 in 10.0 mi Calm Calm - N/A   Clear
1:50 PM 86.0 °F 84.5 °F 55.4 °F 35% 30.05 in 10.0 mi WSW 5.8 mph - N/A   Clear
2:50 PM 87.8 °F 85.7 °F 53.6 °F 31% 30.03 in 10.0 mi West 5.8 mph - N/A   Clear
3:50 PM 87.8 °F 85.7 °F 53.6 °F 31% 30.01 in 10.0 mi Calm Calm - N/A   Clear
4:50 PM 87.8 °F 85.7 °F 53.6 °F 31% 29.99 in 10.0 mi Calm Calm - N/A   Clear
5:50 PM 87.8 °F 85.7 °F 53.6 °F 31% 29.99 in 10.0 mi ESE 5.8 mph - N/A   Clear
6:50 PM 86.0 °F - 51.8 °F 31% 29.99 in 10.0 mi South 4.6 mph - N/A   Clear
7:55 PM 82.4 °F 81.4 °F 53.6 °F 37% 30.00 in 10.0 mi Calm Calm - N/A   Clear
8:15 PM 80.6 °F - 51.8 °F 37% 30.00 in 10.0 mi Calm Calm - N/A   Clear
8:35 PM 78.8 °F - 51.8 °F 39% 30.01 in 10.0 mi Calm Calm - N/A   Clear
8:55 PM 75.2 °F - 53.6 °F 47% 30.01 in 10.0 mi Calm Calm - N/A   Clear
9:15 PM 73.4 °F - 53.6 °F 50% 30.01 in 10.0 mi Calm Calm - N/A   Clear
9:35 PM 71.6 °F - 53.6 °F 53% 30.02 in 10.0 mi Calm Calm - N/A   Clear
9:55 PM 69.8 °F - 53.6 °F 56% 30.02 in 10.0 mi Calm Calm - N/A   Clear
10:15 PM 69.8 °F - 53.6 °F 56% 30.02 in 10.0 mi ENE 8.1 mph - N/A   Clear
10:35 PM 73.4 °F - 55.4 °F 53% 30.04 in 10.0 mi SE 5.8 mph - N/A   Clear
10:55 PM 75.2 °F - 55.4 °F 50% 30.04 in 10.0 mi SSE 3.5 mph - N/A   Clear
11:15 PM 73.4 °F - 55.4 °F 53% 30.05 in 10.0 mi Calm Calm - N/A   Clear
11:35 PM 71.6 °F - 55.4 °F 57% 30.05 in 10.0 mi Calm Calm - N/A   Clear
11:55 PM 69.8 °F - 55.4 °F 60% 30.05 in 10.0 mi SSE 3.5 mph - N/A   Clear